Location: ??????
(55.2000°N, 38.3000°E)
Time: 01:43:04
(UTC+00:00)

USA 267 - Pass Details

Date: 15 November 2025
Orbit: 1100 x 1108 km, 123.0° (Epoch: 21 November)

Event Time Altitude Azimuth Distance (km) Brightness Sun altitude
Rises 01:31:48 0° 62° (ENE) 3,926 7.2 -29.2°
Reaches altitude 10° 01:34:29 10° 70° (ENE) 2,964 6.4 -28.9°
Maximum altitude 01:40:34 39° 138° (SE) 1,581 4.3 -28.0°
Enters shadow 01:44:05 23° 192° (SSW) 2,148 4.6 -27.5°
